Butler, PA

7:45 PM EDT on September 22, 2017 (GMT -0400)
Butler County-Scholter

Weather History for KBTP - April, 2013

Change the Weather History Date:

Wednesday, April 10, 2013

  Actual Average Record
Temperature  
Mean Temperature 67 °F -  
Max Temperature 77 °F 57 °F 81 °F (1969)
Min Temperature 57 °F 36 °F 15 °F (1997)
Cooling Degree Days 2    
Growing Degree Days 17 (Base 50)    
Moisture  
Dew Point 55 °F    
Average Humidity 68    
Maximum Humidity 94    
Minimum Humidity 50    
Precipitation  
Precipitation 1.23 in - - ()
Sea Level Pressure  
Sea Level Pressure 29.93 in    
Wind  
Wind Speed 10 mph (SW)    
Max Wind Speed 21 mph    
Max Gust Speed 31 mph    
Visibility 10 miles    
Events Thunderstorm    
Averages and records for this station are not official NWS values.
T = Trace of Precipitation, MM = Missing Value Source: NWS Daily Summary

Daily Weather History Graph

Daily Weather History Graph

Search for Another Location

Airport or City:

Trip Planner

Search our weather history database for the weather conditions in past years. The results will help you decide how hot, cold, wet, or windy it might be!

Date:

Astronomy

Apr. 10, 2013 Rise Set
Actual Time 6:48 AM EDT 7:54 PM EDT
Civil Twilight 6:20 AM EDT 8:22 PM EDT
Nautical Twilight 5:46 AM EDT 8:56 PM EDT
Astronomical Twilight 5:11 AM EDT 9:31 PM EDT
Moon 6:43 AM EDT (4/10) 8:28 PM EDT (4/10)
Length of Visible Light 14h 02m
Length of Day
13h 05m
New Moon, 0% of the Moon is Illuminated
Apr 10
New Moon
Apr 18
First Quarter
Apr 25
Full
May 2
Last Quarter
May 9
New

Hourly Weather History & Observations

Time (EDT) Temp. Dew Point Humidity Pressure Visibility Wind Dir Wind Speed Gust Speed Precip Events Conditions
12:15 AM 66.2 °F 50.0 °F 56% 29.95 in 10.0 mi WSW 10.4 mph - N/A   Clear
12:35 AM 68.0 °F 50.0 °F 52% 29.95 in 10.0 mi WSW 9.2 mph - N/A   Clear
12:55 AM 68.0 °F 50.0 °F 52% 29.96 in 10.0 mi WSW 11.5 mph - N/A   Clear
1:15 AM 68.0 °F 50.0 °F 52% 29.96 in 10.0 mi WSW 10.4 mph - N/A   Clear
1:35 AM 68.0 °F 50.0 °F 52% 29.95 in 10.0 mi WSW 8.1 mph - N/A   Partly Cloudy
1:55 AM 69.8 °F 51.8 °F 53% 29.95 in 10.0 mi WSW 11.5 mph - N/A   Mostly Cloudy
2:15 AM 69.8 °F 51.8 °F 53% 29.95 in 10.0 mi WSW 12.7 mph - N/A   Overcast
2:35 AM 68.0 °F 51.8 °F 56% 29.95 in 10.0 mi WSW 11.5 mph 18.4 mph N/A   Scattered Clouds
2:55 AM 68.0 °F 51.8 °F 56% 29.95 in 10.0 mi WSW 10.4 mph - N/A   Mostly Cloudy
3:15 AM 68.0 °F 51.8 °F 56% 29.95 in 10.0 mi WSW 11.5 mph 16.1 mph N/A   Mostly Cloudy
3:35 AM 68.0 °F 51.8 °F 56% 29.96 in 10.0 mi SW 12.7 mph 19.6 mph N/A   Mostly Cloudy
3:55 AM 68.0 °F 51.8 °F 56% 29.96 in 10.0 mi WSW 11.5 mph - N/A   Overcast
4:15 AM 68.0 °F 51.8 °F 56% 29.95 in 10.0 mi WSW 10.4 mph - N/A   Overcast
4:35 AM 68.0 °F 51.8 °F 56% 29.95 in 10.0 mi WSW 9.2 mph - N/A   Overcast
4:55 AM 68.0 °F 53.6 °F 60% 29.95 in 10.0 mi West 6.9 mph - N/A   Overcast
5:15 AM 66.2 °F 53.6 °F 64% 29.95 in 10.0 mi West 6.9 mph - N/A   Overcast
5:35 AM 66.2 °F 53.6 °F 64% 29.95 in 10.0 mi WSW 6.9 mph - N/A   Mostly Cloudy
5:55 AM 66.2 °F 53.6 °F 64% 29.95 in 10.0 mi WSW 6.9 mph - N/A   Scattered Clouds
6:15 AM 66.2 °F 51.8 °F 60% 29.95 in 10.0 mi SSW 4.6 mph - N/A   Partly Cloudy
6:35 AM 64.4 °F 51.8 °F 64% 29.95 in 10.0 mi South 8.1 mph - N/A   Clear
6:55 AM 64.4 °F 51.8 °F 64% 29.96 in 10.0 mi SW 4.6 mph - N/A   Clear
7:15 AM 62.6 °F 51.8 °F 68% 29.96 in 10.0 mi SSW 8.1 mph - N/A   Partly Cloudy
7:35 AM 64.4 °F 51.8 °F 64% 29.97 in 10.0 mi SW 8.1 mph - N/A   Clear
7:55 AM 64.4 °F 53.6 °F 68% 29.98 in 10.0 mi SW 8.1 mph - N/A   Clear
8:15 AM 64.4 °F 53.6 °F 68% 29.98 in 10.0 mi SW 9.2 mph - N/A   Clear
8:35 AM 66.2 °F 53.6 °F 64% 29.98 in 10.0 mi SW 9.2 mph - N/A   Scattered Clouds
8:55 AM 66.2 °F 53.6 °F 64% 29.98 in 10.0 mi SW 9.2 mph - N/A   Overcast
9:15 AM 66.2 °F 53.6 °F 64% 29.97 in 10.0 mi SW 12.7 mph 17.3 mph N/A   Mostly Cloudy
9:35 AM 66.2 °F 55.4 °F 68% 29.97 in 10.0 mi SW 10.4 mph 16.1 mph N/A   Mostly Cloudy
9:55 AM 68.0 °F 55.4 °F 64% 29.96 in 10.0 mi SW 13.8 mph 19.6 mph N/A   Scattered Clouds
10:15 AM 69.8 °F 55.4 °F 60% 29.96 in 10.0 mi SW 12.7 mph 21.9 mph N/A   Mostly Cloudy
10:35 AM 69.8 °F 55.4 °F 60% 29.96 in 10.0 mi SW 13.8 mph 21.9 mph N/A   Mostly Cloudy
10:55 AM 71.6 °F 55.4 °F 57% 29.95 in 10.0 mi SW 15.0 mph 19.6 mph N/A   Partly Cloudy
11:15 AM 73.4 °F 55.4 °F 53% 29.95 in 10.0 mi SW 16.1 mph 21.9 mph N/A   Scattered Clouds
11:35 AM 73.4 °F 55.4 °F 53% 29.95 in 10.0 mi WSW 11.5 mph 20.7 mph N/A   Mostly Cloudy
11:55 AM 75.2 °F 57.2 °F 53% 29.95 in 10.0 mi SW 13.8 mph 23.0 mph N/A   Scattered Clouds
12:15 PM 75.2 °F 57.2 °F 53% 29.94 in 10.0 mi WSW 17.3 mph - N/A   Scattered Clouds
12:35 PM 75.2 °F 57.2 °F 53% 29.92 in 10.0 mi SW 16.1 mph 24.2 mph N/A   Partly Cloudy
1:15 PM 77.0 °F 57.2 °F 50% 29.92 in 10.0 mi SW 15.0 mph 24.2 mph N/A   Partly Cloudy
1:35 PM 75.2 °F 57.2 °F 53% 29.91 in 10.0 mi SW 12.7 mph 19.6 mph N/A   Mostly Cloudy
1:55 PM 75.2 °F 57.2 °F 53% 29.91 in 10.0 mi SW 20.7 mph 28.8 mph N/A Thunderstorm Overcast
2:15 PM 73.4 °F 57.2 °F 57% 29.91 in 10.0 mi WSW 17.3 mph 24.2 mph N/A Thunderstorm Mostly Cloudy
2:35 PM 73.4 °F 57.2 °F 57% 29.89 in 10.0 mi SW 12.7 mph 18.4 mph N/A   Scattered Clouds
2:55 PM 71.6 °F 57.2 °F 60% 29.91 in 10.0 mi WSW 10.4 mph 17.3 mph N/A   Scattered Clouds
3:15 PM 71.6 °F 57.2 °F 60% 29.93 in 10.0 mi West 5.8 mph - N/A Thunderstorm Thunderstorm
3:35 PM 66.2 °F 60.8 °F 83% 29.88 in 10.0 mi South 6.9 mph - 0.04 in Thunderstorm Thunderstorm
3:55 PM 66.2 °F 60.8 °F 83% 29.85 in 10.0 mi Calm Calm - 0.04 in Thunderstorm Thunderstorm
4:15 PM 64.4 °F 60.8 °F 88% 29.87 in 9.0 mi NW 4.6 mph - N/A   Scattered Clouds
4:35 PM 66.2 °F 60.8 °F 83% 29.87 in 10.0 mi West 3.5 mph - N/A   Mostly Cloudy
4:55 PM 68.0 °F 62.6 °F 83% 29.85 in 10.0 mi WSW 4.6 mph - N/A   Scattered Clouds
5:15 PM 69.8 °F 62.6 °F 78% 29.84 in 10.0 mi SSW 6.9 mph - N/A   Clear
5:35 PM 71.6 °F 62.6 °F 73% 29.85 in 10.0 mi SW 6.9 mph - N/A   Clear
5:55 PM 71.6 °F 60.8 °F 69% 29.85 in 10.0 mi West 4.6 mph - N/A   Clear
6:15 PM 71.6 °F 60.8 °F 69% 29.85 in 10.0 mi WSW 4.6 mph - N/A   Clear
6:35 PM 69.8 °F 59.0 °F 68% 29.92 in 10.0 mi NW 20.7 mph 31.1 mph N/A Thunderstorm Thunderstorm
6:55 PM 59.0 °F 53.6 °F 82% 29.89 in 6.0 mi NW 8.1 mph 17.3 mph 0.33 in Thunderstorm Thunderstorm
7:15 PM 59.0 °F 53.6 °F 82% 29.90 in 10.0 mi SSW 6.9 mph - 0.08 in Thunderstorm Thunderstorm
7:35 PM 59.0 °F 55.4 °F 88% 29.89 in 10.0 mi WSW 4.6 mph - 0.15 in Thunderstorm Thunderstorm
7:55 PM 59.0 °F 55.4 °F 88% 29.89 in 10.0 mi Calm Calm - 0.17 in Thunderstorm Thunderstorm
8:15 PM 59.0 °F 55.4 °F 88% 29.87 in 10.0 mi North 5.8 mph - 0.01 in   Mostly Cloudy
8:35 PM 59.0 °F 55.4 °F 88% 29.91 in 10.0 mi NNW 10.4 mph 16.1 mph 0.03 in Thunderstorm Mostly Cloudy
8:55 PM 59.0 °F 55.4 °F 88% 29.92 in 5.0 mi NW 4.6 mph - 0.28 in Thunderstorm Thunderstorm
9:15 PM 57.2 °F 55.4 °F 94% 29.94 in 10.0 mi NW 10.4 mph 17.3 mph 0.08 in Thunderstorm Thunderstorm
9:35 PM 57.2 °F 55.4 °F 94% 29.97 in 10.0 mi West 6.9 mph - 0.17 in Thunderstorm Thunderstorm
9:55 PM 57.2 °F 55.4 °F 94% 29.95 in 6.0 mi Calm Calm - 0.24 in   Overcast
10:15 PM 57.2 °F 55.4 °F 94% 29.92 in 5.0 mi ESE 8.1 mph - 0.07 in   Overcast
10:35 PM 57.2 °F 55.4 °F 94% 29.92 in 8.0 mi SSE 4.6 mph - 0.11 in Thunderstorm Thunderstorm
10:55 PM 57.2 °F 55.4 °F 94% 29.91 in 8.0 mi South 5.8 mph - 0.13 in   Mostly Cloudy
11:15 PM 57.2 °F 55.4 °F 94% 29.92 in 8.0 mi South 5.8 mph - N/A   Mostly Cloudy
11:35 PM 57.2 °F 55.4 °F 94% 29.89 in 7.0 mi South 5.8 mph - 0.03 in   Mostly Cloudy
11:55 PM 57.2 °F 55.4 °F 94% 29.86 in 7.0 mi SSE 10.4 mph - 0.04 in   Mostly Cloudy